• In Hungary
  • List of Countries
  • For 7 days
  • Water Temperature
  • Satellite Maps
  • Weather Map
  • News
  • Weather Widgets
  • user-avatar
    Login

    Hourly Weather Chucheve

    Today, 19 February, Monday

    Time Temperature Precipitation Wind Pressure Humidity
    00:00 -6°C° 0 mm 2 mps 753 mmHg 90%
    01:00 -6°C° 0 mm 2 mps 753 mmHg 91%
    02:00 -7°C° 0 mm 2 mps 753 mmHg 93%
    03:00 -7°C° 0 mm 2 mps 753 mmHg 93%
    04:00 -7°C° 0 mm 2 mps 753 mmHg 93%
    05:00 -8°C° 0 mm 2 mps 753 mmHg 93%
    06:00 -8°C° 0 mm 2 mps 753 mmHg 92%
    07:00 -8°C° 0 mm 2 mps 753 mmHg 92%
    08:00 -7°C° 0 mm 2 mps 753 mmHg 91%
    09:00 -6°C° 0 mm 2 mps 753 mmHg 87%
    10:00 -5°C° 0 mm 2 mps 753 mmHg 83%
    11:00 -4°C° 0 mm 3 mps 753 mmHg 79%
    12:00 -2°C° 0 mm 3 mps 753 mmHg 78%
    13:00 -2°C° 0 mm 3 mps 753 mmHg 77%
    14:00 -1°C° 0 mm 3 mps 753 mmHg 76%
    15:00 -2°C° 0 mm 2 mps 753 mmHg 79%
    16:00 -2°C° 0 mm 2 mps 753 mmHg 81%
    17:00 -3°C° 0 mm 2 mps 753 mmHg 84%
    18:00 -3°C° 0 mm 2 mps 753 mmHg 86%
    19:00 -4°C° 0 mm 2 mps 753 mmHg 88%
    20:00 -4°C° 0 mm 2 mps 753 mmHg 89%
    21:00 -4°C° 0 mm 2 mps 753 mmHg 90%
    22:00 -5°C° 0 mm 2 mps 753 mmHg 90%
    23:00 -5°C° 0 mm 2 mps 753 mmHg 91%

    Tomorrow, 20 February, Tuesday

    Time Temperature Precipitation Wind Pressure Humidity
    00:00 -3°C° 0 mm 1 mps 753 mmHg 91%
    01:00 -4°C° 0 mm 1 mps 753 mmHg 91%
    02:00 -4°C° 0 mm 1 mps 753 mmHg 92%
    03:00 -4°C° 0 mm 1 mps 753 mmHg 92%
    04:00 -4°C° 0 mm 1 mps 753 mmHg 92%
    05:00 -6°C° 0 mm 1 mps 753 mmHg 92%
    06:00 -6°C° 0 mm 1 mps 753 mmHg 92%
    07:00 -6°C° 0 mm 1 mps 753 mmHg 92%
    08:00 -6°C° 0 mm 1 mps 753 mmHg 92%
    09:00 -3°C° 0 mm 1 mps 753 mmHg 89%
    10:00 -2°C° 0 mm 1 mps 753 mmHg 85%
    11:00 -1°C° 0 mm 1 mps 753 mmHg 82%
    12:00 -1°C° 0 mm 1 mps 753 mmHg 81%
    13:00 0°C° 0 mm 1 mps 753 mmHg 79%
    14:00 -2°C° 0 mm 2 mps 753 mmHg 78%
    15:00 0°C° 0 mm 1 mps 753 mmHg 80%
    16:00 -1°C° 0 mm 1 mps 753 mmHg 82%
    17:00 -1°C° 0 mm 1 mps 753 mmHg 84%
    18:00 -2°C° 0 mm 1 mps 753 mmHg 85%
    19:00 -5°C° 0 mm 2 mps 753 mmHg 87%
    20:00 -6°C° 0 mm 2 mps 753 mmHg 89%
    21:00 -6°C° 0 mm 2 mps 753 mmHg 89%
    22:00 -6°C° 0 mm 2 mps 753 mmHg 89%
    23:00 -7°C° 0 mm 2 mps 753 mmHg 89%

    Day after tomorrow, 21 February, Wednesday

    Time Temperature Precipitation Wind Pressure Humidity
    00:00 -7°C° 0 mm 2 mps 753 mmHg 89%
    01:00 -7°C° 0 mm 2 mps 753 mmHg 90%
    02:00 -7°C° 0 mm 2 mps 753 mmHg 90%
    03:00 -7°C° 0 mm 2 mps 753 mmHg 90%
    04:00 -7°C° 0 mm 2 mps 753 mmHg 90%
    05:00 -8°C° 0 mm 2 mps 752 mmHg 90%
    06:00 -8°C° 0 mm 2 mps 752 mmHg 90%
    07:00 -7°C° 0 mm 2 mps 752 mmHg 89%
    08:00 -7°C° 0 mm 2 mps 752 mmHg 89%
    09:00 -6°C° 0 mm 2 mps 752 mmHg 86%
    10:00 -5°C° 0 mm 2 mps 752 mmHg 83%
    11:00 -4°C° 0 mm 2 mps 752 mmHg 81%
    12:00 -4°C° 0 mm 2 mps 752 mmHg 79%
    13:00 -3°C° 0 mm 2 mps 752 mmHg 77%
    14:00 -2°C° 0 mm 2 mps 751 mmHg 76%
    15:00 -3°C° 0 mm 2 mps 751 mmHg 78%
    16:00 -3°C° 0 mm 2 mps 751 mmHg 81%
    17:00 -3°C° 0 mm 2 mps 751 mmHg 83%
    18:00 -4°C° 0 mm 2 mps 751 mmHg 86%
    19:00 -5°C° 0 mm 2 mps 751 mmHg 88%
    20:00 -5°C° 0 mm 2 mps 751 mmHg 91%
    21:00 -3°C° 0 mm 1 mps 751 mmHg 91%
    22:00 -3°C° 0 mm 1 mps 752 mmHg 92%
    23:00 -4°C° 0 mm 1 mps 752 mmHg 92%

    22 February, Thursday

    Time Temperature Precipitation Wind Pressure Humidity
    00:00 -4°C° 0 mm 1 mps 752 mmHg 92%
    01:00 -4°C° 0 mm 1 mps 752 mmHg 93%
    02:00 -4°C° 0 mm 1 mps 752 mmHg 93%
    03:00 -6°C° 0 mm 1 mps 752 mmHg 93%
    04:00 -6°C° 0 mm 1 mps 752 mmHg 93%
    05:00 -6°C° 0 mm 1 mps 752 mmHg 94%
    06:00 -6°C° 0 mm 1 mps 752 mmHg 93%
    07:00 -6°C° 0 mm 1 mps 752 mmHg 93%
    08:00 -6°C° 0 mm 1 mps 752 mmHg 93%
    09:00 -4°C° 0 mm 1 mps 752 mmHg 89%
    10:00 -5°C° 0 mm 2 mps 752 mmHg 85%
    11:00 -4°C° 0 mm 2 mps 752 mmHg 82%
    12:00 -3°C° 0 mm 2 mps 752 mmHg 80%
    13:00 -3°C° 0 mm 2 mps 752 mmHg 78%
    14:00 -2°C° 0 mm 2 mps 752 mmHg 76%
    15:00 -2°C° 0 mm 2 mps 751 mmHg 78%
    16:00 -3°C° 0 mm 2 mps 751 mmHg 81%
    17:00 -3°C° 0 mm 2 mps 751 mmHg 83%
    18:00 -4°C° 0 mm 2 mps 751 mmHg 85%
    19:00 -4°C° 0 mm 2 mps 751 mmHg 87%
    20:00 -5°C° 0 mm 2 mps 751 mmHg 90%
    21:00 -5°C° 0 mm 2 mps 751 mmHg 90%
    22:00 -5°C° 0 mm 2 mps 751 mmHg 91%
    23:00 -5°C° 0 mm 2 mps 751 mmHg 92%

    23 February, Friday

    Time Temperature Precipitation Wind Pressure Humidity
    00:00 -6°C° 0 mm 2 mps 751 mmHg 92%
    01:00 -4°C° 0 mm 1 mps 751 mmHg 92%
    02:00 -4°C° 0 mm 1 mps 751 mmHg 93%
    03:00 -6°C° 0 mm 2 mps 751 mmHg 93%
    04:00 -7°C° 0 mm 2 mps 750 mmHg 93%
    05:00 -7°C° 0 mm 2 mps 750 mmHg 93%
    06:00 -7°C° 0 mm 2 mps 750 mmHg 93%
    07:00 -7°C° 0 mm 2 mps 750 mmHg 92%
    08:00 -7°C° 0 mm 2 mps 750 mmHg 92%
    09:00 -6°C° 0.1 mm 2 mps 750 mmHg 90%
    10:00 -7°C° 0.1 mm 3 mps 750 mmHg 88%
    11:00 -7°C° 0.1 mm 3 mps 750 mmHg 86%
    12:00 -7°C° 0.1 mm 3 mps 750 mmHg 85%
    13:00 -8°C° 0.1 mm 4 mps 750 mmHg 85%
    14:00 -7°C° 0.1 mm 4 mps 749 mmHg 84%
    15:00 -8°C° 0.1 mm 4 mps 749 mmHg 84%
    16:00 -9°C° 0.1 mm 4 mps 749 mmHg 85%
    17:00 -10°C° 0.1 mm 5 mps 749 mmHg 85%
    18:00 -11°C° 0.1 mm 5 mps 749 mmHg 85%
    19:00 -12°C° 0.1 mm 5 mps 749 mmHg 85%
    20:00 -14°C° 0.1 mm 6 mps 749 mmHg 84%
    21:00 -15°C° 0.1 mm 6 mps 750 mmHg 84%
    22:00 -14°C° 0.1 mm 5 mps 750 mmHg 84%
    23:00 -15°C° 0.1 mm 5 mps 750 mmHg 84%

    24 February, Saturday

    Time Temperature Precipitation Wind Pressure Humidity
    00:00 -17°C° 0 mm 5 mps 750 mmHg 84%
    01:00 -17°C° 0 mm 5 mps 750 mmHg 84%
    02:00 -18°C° 0 mm 5 mps 750 mmHg 84%
    03:00 -18°C° 0 mm 5 mps 750 mmHg 84%
    04:00 -18°C° 0 mm 5 mps 750 mmHg 85%
    05:00 -18°C° 0 mm 5 mps 749 mmHg 85%
    06:00 -18°C° 0 mm 5 mps 749 mmHg 84%
    07:00 -19°C° 0 mm 5 mps 749 mmHg 84%
    08:00 -19°C° 0 mm 5 mps 749 mmHg 84%
    09:00 -18°C° 0 mm 5 mps 749 mmHg 81%
    10:00 -17°C° 0 mm 5 mps 749 mmHg 79%
    11:00 -17°C° 0 mm 6 mps 749 mmHg 76%
    12:00 -16°C° 0 mm 6 mps 749 mmHg 74%
    13:00 -16°C° 0 mm 6 mps 749 mmHg 72%
    14:00 -15°C° 0 mm 6 mps 748 mmHg 71%
    15:00 -15°C° 0 mm 6 mps 748 mmHg 72%
    16:00 -15°C° 0 mm 5 mps 748 mmHg 73%
    17:00 -15°C° 0 mm 5 mps 748 mmHg 74%
    18:00 -15°C° 0 mm 5 mps 748 mmHg 76%
    19:00 -17°C° 0 mm 5 mps 747 mmHg 77%
    20:00 -16°C° 0 mm 4 mps 747 mmHg 79%
    21:00 -16°C° 0 mm 4 mps 747 mmHg 80%
    22:00 -16°C° 0 mm 4 mps 747 mmHg 81%
    23:00 -16°C° 0 mm 4 mps 746 mmHg 83%
    Show more